This is the latest recevied weather packets stored in our database for station/object K5EAA-13. If no packets are shown the sender has not sent any weather packets the latest 10 day(s).
| Time | Temp. | Humidity | Pressure | Rain* | Wind** | Luminosity | Snow |
|---|---|---|---|---|---|---|---|
| 1787755874 | 31.67° C | 49% | 1014.2 hPa | 0 mm | - | 382 W/m² | - |
| 1787755573 | 31.67° C | 48% | 1014.1 hPa | 0 mm | - | 358 W/m² | - |
| 1787755268 | 31.67° C | 49% | 1014.4 hPa | 0 mm | - | 344 W/m² | - |
| 1787754967 | 31.11° C | 51% | 1014.3 hPa | 0 mm | - | 333 W/m² | - |
| 1787754662 | 30.56° C | 51% | 1014.3 hPa | 0 mm | - | 282 W/m² | - |
| 1787754359 | 30° C | 51% | 1014.5 hPa | 0 mm | - | 136 W/m² | - |
| 1787754055 | 30° C | 51% | 1014.4 hPa | 0 mm | - | 104 W/m² | - |
| 1787753754 | 30° C | 51% | 1014.3 hPa | 0 mm | - | 83 W/m² | - |
| 1787753453 | 30° C | 51% | 1014.3 hPa | 0 mm | - | 85 W/m² | - |
| 1787753152 | 30.56° C | 51% | 1014.1 hPa | 0 mm | - | 93 W/m² | - |
| 1787752847 | 30° C | 52% | 1014.2 hPa | 0 mm | - | 106 W/m² | - |
| 1787752546 | 30° C | 53% | 1014.3 hPa | 0 mm | - | 114 W/m² | - |
| 1787752242 | 30° C | 53% | 1014.4 hPa | 0 mm | - | 113 W/m² | - |
| 1787751940 | 30° C | 54% | 1014.4 hPa | 0 mm | - | 112 W/m² | - |
| 1787751636 | 30° C | 53% | 1014.4 hPa | 0 mm | - | 113 W/m² | - |
| 1787751331 | 30° C | 53% | 1014.2 hPa | 0 mm | - | 102 W/m² | - |
| 1787751026 | 30° C | 54% | 1014.4 hPa | 0 mm | - | 94 W/m² | - |
| 1787750727 | 30° C | 54% | 1014.3 hPa | 0 mm | - | 92 W/m² | - |
| 1787750426 | 29.44° C | 55% | 1014.4 hPa | 0 mm | - | 91 W/m² | - |
| 1787750121 | 29.44° C | 56% | 1014.4 hPa | 0 mm | - | 89 W/m² | - |
| 1787749818 | 29.44° C | 56% | 1014.2 hPa | 0 mm | - | 83 W/m² | - |
| 1787749513 | 28.89° C | 56% | 1014.1 hPa | 0 mm | - | 71 W/m² | - |
| 1787749208 | 28.89° C | 57% | 1014.3 hPa | 0 mm | - | 57 W/m² | - |
| 1787748903 | 28.89° C | 57% | 1014 hPa | 0 mm | - | 49 W/m² | - |
| 1787748602 | 28.89° C | 57% | 1014.1 hPa | 0 mm | - | 45 W/m² | - |
* Rain latest hour (hover to see other rain measurements)
** Current wind speed in m/s (hover to see current wind gust speed)